• In Hungary
  • List of Countries
  • For 7 days
  • Water Temperature
  • Satellite Maps
  • Weather Map
  • News
  • Weather Widgets
  • user-avatar
    Login

    Hourly Weather Ostrowo

    Today, 18 February, Sunday

    Time Temperature Precipitation Wind Pressure Humidity
    00:00 -3°C° 0 mm 4 mps 767 mmHg 88%
    01:00 -3°C° 0 mm 4 mps 767 mmHg 87%
    02:00 -3°C° 0 mm 4 mps 768 mmHg 87%
    03:00 -3°C° 0 mm 4 mps 768 mmHg 86%
    04:00 -3°C° 0 mm 4 mps 768 mmHg 86%
    05:00 -2°C° 0 mm 3 mps 768 mmHg 85%
    06:00 -2°C° 0 mm 3 mps 769 mmHg 85%
    07:00 -2°C° 0 mm 3 mps 769 mmHg 84%
    08:00 -1°C° 0 mm 3 mps 769 mmHg 81%
    09:00 -1°C° 0 mm 2 mps 769 mmHg 78%
    10:00 +1°C° 0 mm 2 mps 769 mmHg 75%
    11:00 +1°C° 0 mm 2 mps 769 mmHg 74%
    12:00 +1°C° 0 mm 3 mps 769 mmHg 73%
    13:00 +1°C° 0 mm 3 mps 769 mmHg 72%
    14:00 +1°C° 0 mm 3 mps 769 mmHg 75%
    15:00 0°C° 0 mm 3 mps 769 mmHg 78%
    16:00 0°C° 0 mm 3 mps 769 mmHg 80%
    17:00 0°C° 0 mm 3 mps 769 mmHg 83%
    18:00 -1°C° 0 mm 4 mps 769 mmHg 86%
    19:00 -2°C° 0 mm 4 mps 769 mmHg 88%
    20:00 -2°C° 0 mm 4 mps 769 mmHg 90%
    21:00 -2°C° 0 mm 4 mps 769 mmHg 91%
    22:00 -2°C° 0 mm 4 mps 769 mmHg 92%
    23:00 -2°C° 0 mm 4 mps 768 mmHg 91%

    Tomorrow, 19 February, Monday

    Time Temperature Precipitation Wind Pressure Humidity
    00:00 -2°C° 0 mm 4 mps 768 mmHg 90%
    01:00 -2°C° 0 mm 4 mps 768 mmHg 89%
    02:00 -3°C° 0 mm 4 mps 768 mmHg 88%
    03:00 -3°C° 0 mm 4 mps 768 mmHg 87%
    04:00 -3°C° 0 mm 4 mps 767 mmHg 86%
    05:00 -3°C° 0 mm 4 mps 767 mmHg 87%
    06:00 -3°C° 0 mm 4 mps 767 mmHg 87%
    07:00 -3°C° 0 mm 4 mps 767 mmHg 87%
    08:00 -2°C° 0 mm 4 mps 767 mmHg 85%
    09:00 -2°C° 0 mm 4 mps 767 mmHg 82%
    10:00 -1°C° 0 mm 4 mps 767 mmHg 80%
    11:00 0°C° 0 mm 4 mps 767 mmHg 78%
    12:00 +1°C° 0 mm 3 mps 767 mmHg 76%
    13:00 +2°C° 0 mm 3 mps 766 mmHg 74%
    14:00 +2°C° 0 mm 2 mps 766 mmHg 76%
    15:00 +2°C° 0 mm 2 mps 766 mmHg 78%
    16:00 +3°C° 0 mm 1 mps 766 mmHg 80%
    17:00 +2°C° 0 mm 1 mps 766 mmHg 81%
    18:00 +2°C° 0 mm 1 mps 766 mmHg 83%
    19:00 +1°C° 0 mm 1 mps 766 mmHg 84%
    20:00 +1°C° 0 mm 1 mps 766 mmHg 84%
    21:00 +1°C° 0 mm 1 mps 766 mmHg 84%
    22:00 +1°C° 0 mm 1 mps 766 mmHg 83%
    23:00 +1°C° 0 mm 1 mps 766 mmHg 83%

    Day after tomorrow, 20 February, Tuesday

    Time Temperature Precipitation Wind Pressure Humidity
    00:00 +1°C° 0 mm 1 mps 766 mmHg 83%
    01:00 +1°C° 0 mm 1 mps 766 mmHg 82%
    02:00 -2°C° 0 mm 2 mps 766 mmHg 82%
    03:00 -2°C° 0 mm 2 mps 766 mmHg 82%
    04:00 -2°C° 0 mm 2 mps 766 mmHg 82%
    05:00 -2°C° 0 mm 3 mps 766 mmHg 82%
    06:00 -3°C° 0 mm 4 mps 766 mmHg 82%
    07:00 -3°C° 0 mm 4 mps 766 mmHg 82%
    08:00 -2°C° 0 mm 5 mps 766 mmHg 81%
    09:00 -2°C° 0 mm 5 mps 766 mmHg 80%
    10:00 -2°C° 0 mm 6 mps 767 mmHg 79%
    11:00 -2°C° 0 mm 6 mps 767 mmHg 80%
    12:00 -2°C° 0 mm 6 mps 767 mmHg 82%
    13:00 -2°C° 0 mm 6 mps 767 mmHg 83%
    14:00 -3°C° 0 mm 6 mps 767 mmHg 84%
    15:00 -2°C° 0 mm 5 mps 767 mmHg 84%
    16:00 -4°C° 0 mm 5 mps 767 mmHg 85%
    17:00 -4°C° 0 mm 5 mps 767 mmHg 83%
    18:00 -4°C° 0 mm 5 mps 767 mmHg 82%
    19:00 -5°C° 0 mm 5 mps 767 mmHg 80%
    20:00 -5°C° 0 mm 5 mps 767 mmHg 79%
    21:00 -5°C° 0 mm 5 mps 767 mmHg 77%
    22:00 -5°C° 0 mm 5 mps 767 mmHg 76%
    23:00 -4°C° 0 mm 4 mps 767 mmHg 75%

    21 February, Wednesday

    Time Temperature Precipitation Wind Pressure Humidity
    00:00 -4°C° 0 mm 4 mps 767 mmHg 74%
    01:00 -4°C° 0 mm 4 mps 767 mmHg 73%
    02:00 -4°C° 0 mm 4 mps 767 mmHg 73%
    03:00 -4°C° 0 mm 4 mps 767 mmHg 73%
    04:00 -4°C° 0 mm 4 mps 767 mmHg 73%
    05:00 -4°C° 0 mm 4 mps 767 mmHg 72%
    06:00 -4°C° 0 mm 4 mps 767 mmHg 71%
    07:00 -4°C° 0 mm 4 mps 767 mmHg 69%
    08:00 -4°C° 0 mm 4 mps 767 mmHg 68%
    09:00 -4°C° 0 mm 4 mps 767 mmHg 66%
    10:00 -4°C° 0 mm 4 mps 767 mmHg 64%
    11:00 -4°C° 0 mm 4 mps 767 mmHg 63%
    12:00 -3°C° 0 mm 4 mps 767 mmHg 61%
    13:00 -2°C° 0 mm 3 mps 767 mmHg 60%
    14:00 -4°C° 0 mm 4 mps 767 mmHg 61%
    15:00 -4°C° 0 mm 4 mps 767 mmHg 61%
    16:00 -4°C° 0 mm 4 mps 767 mmHg 62%
    17:00 -4°C° 0 mm 4 mps 767 mmHg 64%
    18:00 -4°C° 0 mm 4 mps 768 mmHg 66%
    19:00 -5°C° 0 mm 4 mps 768 mmHg 68%
    20:00 -5°C° 0 mm 4 mps 768 mmHg 68%
    21:00 -5°C° 0 mm 4 mps 768 mmHg 68%
    22:00 -5°C° 0 mm 4 mps 769 mmHg 68%
    23:00 -5°C° 0 mm 4 mps 769 mmHg 68%

    22 February, Thursday

    Time Temperature Precipitation Wind Pressure Humidity
    00:00 -5°C° 0 mm 4 mps 769 mmHg 67%
    01:00 -5°C° 0 mm 4 mps 769 mmHg 67%
    02:00 -7°C° 0 mm 4 mps 769 mmHg 68%
    03:00 -7°C° 0 mm 5 mps 768 mmHg 68%
    04:00 -7°C° 0 mm 5 mps 768 mmHg 69%
    05:00 -7°C° 0 mm 5 mps 768 mmHg 69%
    06:00 -7°C° 0 mm 5 mps 768 mmHg 69%
    07:00 -8°C° 0 mm 5 mps 768 mmHg 69%
    08:00 -8°C° 0 mm 5 mps 769 mmHg 68%
    09:00 -7°C° 0 mm 5 mps 769 mmHg 67%
    10:00 -7°C° 0 mm 5 mps 769 mmHg 65%
    11:00 -7°C° 0 mm 5 mps 769 mmHg 64%
    12:00 -7°C° 0 mm 4 mps 768 mmHg 63%
    13:00 -5°C° 0 mm 4 mps 768 mmHg 61%
    14:00 -7°C° 0 mm 4 mps 768 mmHg 62%
    15:00 -7°C° 0 mm 4 mps 768 mmHg 62%
    16:00 -7°C° 0 mm 5 mps 768 mmHg 63%
    17:00 -7°C° 0 mm 5 mps 767 mmHg 64%
    18:00 -7°C° 0 mm 5 mps 767 mmHg 66%
    19:00 -8°C° 0 mm 5 mps 767 mmHg 68%
    20:00 -8°C° 0 mm 4 mps 767 mmHg 68%
    21:00 -8°C° 0 mm 4 mps 767 mmHg 67%
    22:00 -8°C° 0 mm 4 mps 767 mmHg 67%
    23:00 -7°C° 0 mm 3 mps 767 mmHg 67%

    23 February, Friday

    Time Temperature Precipitation Wind Pressure Humidity
    00:00 -7°C° 0 mm 3 mps 767 mmHg 67%
    01:00 -7°C° 0 mm 3 mps 766 mmHg 67%
    02:00 -6°C° 0.1 mm 2 mps 766 mmHg 69%
    03:00 -6°C° 0.1 mm 2 mps 766 mmHg 70%
    04:00 -6°C° 0.1 mm 2 mps 765 mmHg 71%
    05:00 -7°C° 0.2 mm 3 mps 765 mmHg 74%
    06:00 -7°C° 0.2 mm 3 mps 765 mmHg 78%
    07:00 -7°C° 0.2 mm 3 mps 765 mmHg 81%
    08:00 -7°C° 0.3 mm 4 mps 765 mmHg 80%
    09:00 -7°C° 0.3 mm 5 mps 765 mmHg 79%
    10:00 -7°C° 0.3 mm 5 mps 765 mmHg 78%
    11:00 -8°C° 0.2 mm 6 mps 765 mmHg 71%
    12:00 -7°C° 0.2 mm 7 mps 765 mmHg 65%
    13:00 -7°C° 0.2 mm 8 mps 765 mmHg 59%
    14:00 -8°C° 0.1 mm 9 mps 765 mmHg 61%
    15:00 -8°C° 0.1 mm 9 mps 766 mmHg 63%
    16:00 -9°C° 0.1 mm 9 mps 766 mmHg 66%
    17:00 -8°C° 0.1 mm 8 mps 766 mmHg 65%
    18:00 -10°C° 0.1 mm 8 mps 766 mmHg 65%
    19:00 -10°C° 0.1 mm 8 mps 766 mmHg 65%
    20:00 -10°C° 0.2 mm 8 mps 766 mmHg 65%
    21:00 -10°C° 0.2 mm 9 mps 766 mmHg 64%
    22:00 -10°C° 0.2 mm 9 mps 767 mmHg 63%
    23:00 -10°C° 0.3 mm 9 mps 767 mmHg 66%
    Show more